Hourly Data Report for October 24, 2017

VICTORIA UNIVERSITY CS
BRITISH COLUMBIA

48°27'25.200" N
123°18'16.600" W
60.10 m
1018598
71783
WYJ

Download Data

Hourly Data (October 2017)
Hourly Data Report for October 24, 2017
TIME
LST
Temp Definition
°C
Dew Point Definition
°C
Rel Hum Definition
%
Precip. Amount Definition
mm

Wind Dir Definition
10's deg

Wind Spd Definition
km/h
Visibility Definition
km
Stn Press Definition
kPa
Hmdx Definition


Wind Chill Definition


Weather Definition


00:00 11.4 8.2 81 0.0 35 8   103.02     LegendNANA
01:00 11.0 8.3 83 0.0 33 7   103.00     LegendNANA
02:00 10.7 7.8 82 0.0 34 8   102.95     LegendNANA
03:00 9.7 7.4 86 0.0 32 3   102.89     LegendNANA
04:00 9.5 8.0 90 0.0 34 6   102.83     LegendNANA
05:00 10.0 7.7 86 0.0 35 6   102.76     LegendNANA
06:00 9.9 7.5 85 0.0 35 8   102.70     LegendNANA
07:00 9.4 7.4 87 0.0 33 6   102.67     LegendNANA
08:00 9.8 7.5 86 0.0 1 9   102.62     LegendNANA
09:00 11.2 7.6 79 0.0 36 12   102.60     LegendNANA
10:00 11.7 7.6 76 0.0 1 14   102.52     LegendNANA
11:00 12.2 7.3 72 0.0 1 13   102.47     LegendNANA
12:00 14.0 7.5 65 0.0 36 12   102.35     LegendNANA
13:00 14.7 7.8 63 0.0 1 8   102.23     LegendNANA
14:00 14.4 8.1 66 0.0 2 7   102.13     LegendNANA
15:00 14.5 8.3 66 0.0 3 4   102.05     LegendNANA
16:00 14.0 7.8 66 0.0 35 6   101.94     LegendNANA
17:00 11.7 8.1 79 0.0 29 4   101.86     LegendNANA
18:00 9.1 7.2 88 0.0 25 2   101.79     LegendNANA
19:00 8.3 7.2 93 0.0 30 5   101.75     LegendNANA
20:00 8.9 7.2 89 0.0 36 4   101.72     LegendNANA
21:00 7.3 6.5 95 0.0 21 2   101.59     LegendNANA
22:00 7.2 6.6 96 0.0   0   101.53     LegendNANA
23:00 7.3 6.8 97 0.0 25 2   101.52     LegendNANA

Notes on Data Quality.

Legend

  • E = Estimated
  • M = Missing
  • NA = Not Available*
  • [empty] = Indicates an unobserved value
Date modified: